Location: Newark
(15.4608°S, 41.1635°W)
Time: 07:19:46
(UTC+00:00)

Transit 4A - Pass Details

Date: 06 March 2021
Orbit: 869 x 975 km, 66.8° (Epoch: 22 April)

Event Time Altitude Azimuth Distance (km) Brightness Sun altitude
Rises 11:14:47 0° 219° (SW) 3,642 10.7 34.9°
Reaches altitude 10° 11:17:39 10° 230° (SW) 2,704 10.0 35.6°
Maximum altitude 11:22:58 29° 287° (WNW) 1,706 9.1 36.9°
Drops below altitude 10° 11:28:19 10° 345° (NNW) 2,710 10.3 38.1°
Sets 11:31:13 0° 356° (N) 3,651 11.0 38.8°
